Rabat-Sale, Morocco

9:36 PM WEST on October 21, 2017 (GMT +0100)
Rabat-Sale

Weather History for GMME - June, 2013

Change the Weather History Date:

Monday, June 24, 2013

  Actual Average Record
Temperature  
Mean Temperature 71 °F -  
Max Temperature 86 °F 77 °F 105 °F (2017)
Min Temperature 56 °F 62 °F 56 °F (2013)
Cooling Degree Days 6    
Growing Degree Days 21 (Base 50)    
Moisture  
Dew Point 56 °F    
Average Humidity 63    
Maximum Humidity 94    
Minimum Humidity 5    
Precipitation  
Precipitation 0.00 in 0.00 in - ()
Sea Level Pressure  
Sea Level Pressure 29.85 in    
Wind  
Wind Speed 3 mph ()    
Max Wind Speed 10 mph    
Max Gust Speed -    
Visibility 4.1 miles    
Events      
Averages and records for this station are not official NWS values.
T = Trace of Precipitation, MM = Missing Value Source: Averaged Metar Reports

Daily Weather History Graph

Daily Weather History Graph

Search for Another Location

Airport or City:

Trip Planner

Search our weather history database for the weather conditions in past years. The results will help you decide how hot, cold, wet, or windy it might be!

Date:

Astronomy

Jun. 24, 2013 Rise Set
Actual Time 6:16 AM WEST 8:42 PM WEST
Civil Twilight 5:47 AM WEST 9:11 PM WEST
Nautical Twilight 5:11 AM WEST 9:47 PM WEST
Astronomical Twilight 4:32 AM WEST 10:26 PM WEST
Moon 9:39 PM WEST (6/24) 7:23 AM WEST (6/24)
Length of Visible Light 15h 23m
Length of Day
14h 25m
Full, 98% of the Moon is Illuminated
Jun 24
Full
Jun 30
Last Quarter
Jul 8
New
Jul 16
First Quarter
Jul 22
Full

Hourly Weather History & Observations

Time (WEST) Temp. Heat Index Dew Point Humidity Pressure Visibility Wind Dir Wind Speed Gust Speed Precip Events Conditions
12:00 AM 66.2 °F - 60.8 °F 83% 29.86 in 5.0 mi WSW 3.5 mph - N/A   Partly Cloudy
1:00 AM 67 °F - 62 °F 81% 29.86 in 5 mi SW 6.9 mph - -   Scattered Clouds
1:00 AM 66.2 °F - 60.8 °F 83% 29.86 in 5.0 mi SW 4.6 mph - N/A   Partly Cloudy
1:30 AM 66.2 °F - 62.6 °F 88% 29.86 in 5.0 mi Calm Calm - N/A   Partly Cloudy
2:00 AM 66.2 °F - 62.6 °F 88% 29.86 in 5.0 mi SSW 6.9 mph - N/A   Partly Cloudy
2:30 AM 64.4 °F - 60.8 °F 88% 29.86 in 5.0 mi Calm Calm - N/A   Partly Cloudy
3:00 AM 64.4 °F - 60.8 °F 88% 29.83 in - Calm Calm - N/A   Unknown
3:30 AM 64.4 °F - 60.8 °F 88% 29.83 in 5.0 mi Calm Calm - N/A   Partly Cloudy
4:00 AM 61 °F - 59 °F 89% 29.84 in 5 mi Calm Calm - -   Scattered Clouds
4:00 AM 60.8 °F - 59.0 °F 94% 29.83 in 5.0 mi Calm Calm - N/A   Partly Cloudy
4:30 AM 60.8 °F - 59.0 °F 94% 29.83 in 5.0 mi Calm Calm - N/A   Partly Cloudy
5:00 AM 60.8 °F - 59.0 °F 94% 29.83 in 5.0 mi Calm Calm - N/A   Partly Cloudy
6:00 AM 59.0 °F - 55.4 °F 88% 29.83 in 3.7 mi Calm Calm - N/A   Partly Cloudy
6:30 AM 60.8 °F - 59.0 °F 94% 29.83 in 3.1 mi Calm Calm - N/A   Partly Cloudy
7:00 AM 60 °F - 58 °F 91% 29.86 in 3 mi Calm Calm - -   Scattered Clouds
7:00 AM 60.8 °F - 59.0 °F 94% 29.83 in 3.1 mi Calm Calm - N/A   Partly Cloudy
7:30 AM 64.4 °F - 62.6 °F 94% 29.86 in 3.1 mi Calm Calm - N/A   Partly Cloudy
8:00 AM 69.8 °F - 64.4 °F 83% 29.86 in 3.1 mi Calm Calm - N/A   Partly Cloudy
8:30 AM 73.4 °F - 60.8 °F 65% 29.86 in 3.1 mi Calm Calm - N/A   Partly Cloudy
9:00 AM 75.2 °F - 60.8 °F 61% 29.86 in 3.1 mi Calm Calm - N/A   Partly Cloudy
9:30 AM 75.2 °F - 60.8 °F 61% 29.86 in 3.1 mi Calm Calm - N/A   Partly Cloudy
10:00 AM 76 °F - 62 °F 53% 29.87 in 3 mi Calm Calm - -   Scattered Clouds
10:00 AM 75.2 °F - 62.6 °F 65% 29.86 in 3.1 mi Calm Calm - N/A   Partly Cloudy
10:30 AM 77.0 °F - 60.8 °F 57% 29.89 in 3.1 mi Calm Calm - N/A   Partly Cloudy
11:00 AM 77.0 °F - 62.6 °F 61% 29.86 in 3.7 mi Calm Calm - N/A   Partly Cloudy
12:00 PM 80.6 °F 81.8 °F 62.6 °F 54% 29.86 in 3.7 mi Calm Calm - N/A   Partly Cloudy
12:30 PM 82.4 °F 83.4 °F 62.6 °F 51% 29.86 in 3.7 mi Calm Calm - N/A   Partly Cloudy
1:00 PM 83 °F - 23 °F 5% 29.86 in 4 mi NW 6.9 mph - -   Scattered Clouds
1:00 PM 82.4 °F 83.4 °F 62.6 °F 51% 29.86 in 3.7 mi NW 6.9 mph - N/A   Partly Cloudy
1:30 PM 84.2 °F - 26.6 °F 12% 29.86 in 3.7 mi NW 8.1 mph - N/A   Partly Cloudy
2:00 PM 78.8 °F - 64.4 °F 61% 29.86 in 3.7 mi NW 10.4 mph - N/A   Partly Cloudy
2:30 PM 77.0 °F - 64.4 °F 65% 29.86 in 3.7 mi NW 9.2 mph - N/A   Partly Cloudy
3:00 PM 82.4 °F 82.5 °F 59.0 °F 45% 29.86 in 3.7 mi NNW 6.9 mph - N/A   Partly Cloudy
3:30 PM 84.2 °F 82.8 °F 53.6 °F 35% 29.86 in 3.7 mi NW 8.1 mph - N/A   Partly Cloudy
4:00 PM 85 °F - 53 °F 23% 29.85 in 5 mi NNW 6.9 mph - -   Scattered Clouds
4:00 PM 84.2 °F 82.8 °F 53.6 °F 35% 29.86 in 5.0 mi NNW 6.9 mph - N/A   Partly Cloudy
4:30 PM 86.0 °F - 21.2 °F 9% 29.86 in 5.0 mi NNW 6.9 mph - N/A   Partly Cloudy
5:00 PM 86.0 °F - 21.2 °F 9% 29.83 in 5.0 mi NNW 5.8 mph - N/A   Partly Cloudy
5:30 PM 84.2 °F - 19.4 °F 9% 29.83 in 5.0 mi NW 6.9 mph - N/A   Partly Cloudy
6:00 PM 84.2 °F - 19.4 °F 9% 29.83 in 5.0 mi NNW 5.8 mph - N/A   Partly Cloudy
6:30 PM 82.4 °F 82.0 °F 57.2 °F 42% 29.83 in 5.0 mi NW 5.8 mph - N/A   Partly Cloudy
7:00 PM 82 °F - 22 °F 5% 29.83 in 5 mi WNW 4.6 mph - -   Scattered Clouds
7:00 PM 82.4 °F 82.5 °F 59.0 °F 45% 29.83 in 5.0 mi WNW 4.6 mph - N/A   Partly Cloudy
8:00 PM 77.0 °F - 62.6 °F 61% 29.83 in 5.0 mi West 3.5 mph - N/A   Partly Cloudy
8:30 PM 75.2 °F - 62.6 °F 65% 29.83 in 5.0 mi WSW 3.5 mph - N/A   Partly Cloudy
9:00 PM 71.6 °F - 64.4 °F 78% 29.86 in 3.7 mi Calm Calm - N/A   Unknown
9:30 PM 69.8 °F - 62.6 °F 78% 29.86 in 3.7 mi Calm Calm - N/A   Unknown
10:00 PM 70 °F - 63 °F 72% 29.87 in 4 mi SW 4.6 mph - -   Clear
10:00 PM 69.8 °F - 62.6 °F 78% 29.86 in 3.7 mi SW 4.6 mph - N/A   Unknown
10:30 PM 71.6 °F - 62.6 °F 73% 29.86 in 3.7 mi SW 8.1 mph - N/A   Unknown
11:00 PM 69.8 °F - 62.6 °F 78% 29.89 in 3.7 mi SW 6.9 mph - N/A   Unknown
11:30 PM 69.8 °F - 64.4 °F 83% 29.89 in 3.7 mi SW 6.9 mph - N/A   Unknown